This is the latest recevied weather packets stored in our database for station/object W7TTE. If no packets are shown the sender has not sent any weather packets the latest 10 day(s).
| Time | Temp. | Humidity | Pressure | Rain* | Wind** | Luminosity | Snow |
|---|---|---|---|---|---|---|---|
| 1777920000 | 22.22° C | 46% | 1015.5 hPa | 0 mm | - | 309 W/m² | - |
| 1777919697 | 22.22° C | 45% | 1015.4 hPa | 0 mm | - | 306 W/m² | - |
| 1777919395 | 22.22° C | 45% | 1015.3 hPa | 0 mm | - | 300 W/m² | - |
| 1777919092 | 22.22° C | 45% | 1015.3 hPa | 0 mm | - | 334 W/m² | - |
| 1777918789 | 22.22° C | 46% | 1015.3 hPa | 0 mm | - | 321 W/m² | - |
| 1777918486 | 21.67° C | 46% | 1015.7 hPa | 0 mm | - | 299 W/m² | - |
| 1777918185 | 21.67° C | 47% | 1015.6 hPa | 0 mm | - | 285 W/m² | - |
| 1777917883 | 21.67° C | 47% | 1015.5 hPa | 0 mm | - | 258 W/m² | - |
| 1777917581 | 22.22° C | 47% | 1015.6 hPa | 0 mm | - | 278 W/m² | - |
| 1777917278 | 21.67° C | 47% | 1016 hPa | 0 mm | - | 276 W/m² | - |
| 1777916976 | 21.67° C | 45% | 1015.9 hPa | 0 mm | - | 285 W/m² | - |
| 1777916673 | 21.67° C | 46% | 1016 hPa | 0 mm | - | 303 W/m² | - |
| 1777916370 | 21.67° C | 46% | 1016 hPa | 0 mm | - | 335 W/m² | - |
| 1777916066 | 21.67° C | 47% | 1015.8 hPa | 0 mm | - | 323 W/m² | - |
| 1777915764 | 21.67° C | 48% | 1015.8 hPa | 0 mm | - | 321 W/m² | - |
| 1777915460 | 21.67° C | 47% | 1015.5 hPa | 0 mm | - | 281 W/m² | - |
| 1777915157 | 21.67° C | 48% | 1015.6 hPa | 0 mm | - | 217 W/m² | - |
| 1777914854 | 21.11° C | 49% | 1015.3 hPa | 0 mm | - | 218 W/m² | - |
| 1777914551 | 21.11° C | 49% | 1014.4 hPa | 0 mm | - | 196 W/m² | - |
| 1777914247 | 21.67° C | 49% | 1014.8 hPa | 0 mm | - | 215 W/m² | - |
| 1777913944 | 21.11° C | 50% | 1014.8 hPa | 0 mm | - | 220 W/m² | - |
| 1777913640 | 21.11° C | 50% | 1015.2 hPa | 0 mm | - | 192 W/m² | - |
| 1777913337 | 21.11° C | 50% | 1015.3 hPa | 0 mm | - | 174 W/m² | - |
| 1777913034 | 21.11° C | 51% | 1015.4 hPa | 0 mm | - | 181 W/m² | - |
| 1777912730 | 21.11° C | 51% | 1015.5 hPa | 0 mm | - | 184 W/m² | - |
* Rain latest hour (hover to see other rain measurements)
** Current wind speed in m/s (hover to see current wind gust speed)